Antwerp, Belgium

5:18 AM CET on February 23, 2017 (GMT +0100)
Deurne

Weather History for EBAW - November, 2012

Change the Weather History Date:

Monday, November 12, 2012

  Actual Average Record
Temperature  
Mean Temperature 44 °F -  
Max Temperature 46 °F 46 °F 61 °F (2015)
Min Temperature 41 °F 36 °F 24 °F (2016)
Degree Days  
Heating Degree Days 22    
Moisture  
Dew Point 40 °F    
Average Humidity 86    
Maximum Humidity 100    
Minimum Humidity 76    
Precipitation  
Precipitation 0.00 in - - ()
Sea Level Pressure  
Sea Level Pressure 30.24 in    
Wind  
Wind Speed 8 mph ()    
Max Wind Speed 13 mph    
Max Gust Speed -    
Visibility 3.9 miles    
Events      
Averages and records for this station are not official NWS values.
T = Trace of Precipitation, MM = Missing Value Source: Averaged Metar Reports

Daily Weather History Graph

Daily Weather History Graph

Search for Another Location

Airport or City:

Trip Planner

Search our weather history database for the weather conditions in past years. The results will help you decide how hot, cold, wet, or windy it might be!

Date:

Astronomy

Nov. 12, 2012 Rise Set
Actual Time 7:54 AM CET 4:57 PM CET
Civil Twilight 7:18 AM CET 5:33 PM CET
Nautical Twilight 6:37 AM CET 6:13 PM CET
Astronomical Twilight 5:58 AM CET 6:52 PM CET
Moon 5:53 AM CET (11/12) 3:56 PM CET (11/12)
Length of Visible Light 10h 15m
Length of Day
9h 03m
Waning Crescent, 3% of the Moon is Illuminated
Nov 12
Waning Crescent
Nov 13
New
Nov 20
First Quarter
Nov 28
Full
Dec 6
Last Quarter

Hourly Weather History & Observations

Time (CET) Temp. Windchill Dew Point Humidity Pressure Visibility Wind Dir Wind Speed Gust Speed Precip Events Conditions
12:20 AM 42.8 °F 39.3 °F 41.0 °F 93% 30.12 in 3.7 mi SW 5.8 mph - N/A   Unknown
12:50 AM 42.8 °F 38.0 °F 41.0 °F 93% 30.12 in 3.7 mi SW 8.1 mph - N/A   Unknown
1:00 AM 42 °F - 40 °F 92% 30.15 in - SW 6.7 mph - -  
1:20 AM 42.8 °F 38.6 °F 41.0 °F 93% 30.15 in 3.7 mi SW 6.9 mph - N/A   Unknown
1:50 AM 42.8 °F 38.0 °F 41.0 °F 93% 30.15 in - SW 8.1 mph - N/A   Mist
2:20 AM 42.8 °F 38.6 °F 41.0 °F 93% 30.15 in - SSW 6.9 mph - N/A   Mist
2:50 AM 41.0 °F 36.4 °F 41.0 °F 100% 30.15 in 1.7 mi SW 6.9 mph - N/A   Overcast
3:20 AM 41.0 °F 36.4 °F 41.0 °F 100% 30.15 in 1.4 mi SW 6.9 mph - N/A   Overcast
3:50 AM 42.8 °F 38.0 °F 41.0 °F 93% 30.15 in 1.6 mi SW 8.1 mph - N/A   Overcast
4:20 AM 42.8 °F 38.0 °F 41.0 °F 93% 30.18 in 1.4 mi SSW 8.1 mph - N/A   Overcast
4:50 AM 42.8 °F 38.6 °F 41.0 °F 93% 30.18 in 1.6 mi SSW 6.9 mph - N/A   Overcast
5:20 AM 42.8 °F 38.6 °F 41.0 °F 93% 30.18 in 1.7 mi SSW 6.9 mph - N/A   Overcast
5:50 AM 42.8 °F 38.6 °F 41.0 °F 93% 30.18 in 1.6 mi SW 6.9 mph - N/A   Overcast
6:20 AM 42.8 °F 38.6 °F 41.0 °F 93% 30.18 in 1.5 mi SSW 6.9 mph - N/A   Overcast
6:50 AM 42.8 °F 38.0 °F 41.0 °F 93% 30.21 in 1.9 mi SSW 8.1 mph - N/A   Mostly Cloudy
7:00 AM 42 °F - 40 °F 91% 30.22 in 2 mi SSW 6.7 mph - -   Mist
7:20 AM 42.8 °F 38.0 °F 41.0 °F 93% 30.21 in 1.7 mi SW 8.1 mph - N/A   Mostly Cloudy
7:50 AM 41.0 °F 35.2 °F 39.2 °F 93% 30.21 in 1.5 mi SSW 9.2 mph - N/A   Mostly Cloudy
8:20 AM 41.0 °F 35.8 °F 39.2 °F 93% 30.24 in 1.6 mi SSW 8.1 mph - N/A   Mostly Cloudy
8:50 AM 42.8 °F 38.0 °F 39.2 °F 87% 30.24 in - SSW 8.1 mph - N/A   Mostly Cloudy
9:20 AM 42.8 °F 38.0 °F 39.2 °F 87% 30.24 in 2.5 mi SSW 8.1 mph - N/A   Mostly Cloudy
9:50 AM 42.8 °F 37.5 °F 39.2 °F 87% 30.24 in - SSW 9.2 mph - N/A   Mostly Cloudy
10:00 AM 42 °F - 40 °F 88% 30.26 in 3 mi SSW 8.9 mph - -   Mist
10:20 AM 42.8 °F 36.2 °F 39.2 °F 87% 30.24 in - SSW 12.7 mph - N/A   Mostly Cloudy
10:50 AM 42.8 °F 38.0 °F 39.2 °F 87% 30.27 in - SSW 8.1 mph - N/A   Mostly Cloudy
11:20 AM 42.8 °F 36.6 °F 39.2 °F 87% 30.27 in - SSW 11.5 mph - N/A   Mostly Cloudy
11:50 AM 44.6 °F 38.8 °F 41.0 °F 87% 30.27 in - SSW 11.5 mph - N/A   Mostly Cloudy
12:20 PM 44.6 °F 39.7 °F 39.2 °F 81% 30.27 in 3.7 mi SSW 9.2 mph - N/A   Mostly Cloudy
12:50 PM 44.6 °F 38.8 °F 41.0 °F 87% 30.27 in 3.7 mi SSW 11.5 mph - N/A   Mostly Cloudy
1:00 PM 44 °F - 40 °F 82% 30.28 in 4 mi SSW 11.2 mph - -   Overcast
1:20 PM 44.6 °F 38.8 °F 41.0 °F 87% 30.27 in 3.7 mi SSW 11.5 mph - N/A   Mostly Cloudy
1:50 PM 46.4 °F 41.9 °F 41.0 °F 81% 30.27 in 5.0 mi SW 9.2 mph - N/A   Mostly Cloudy
2:20 PM 46.4 °F 41.1 °F 41.0 °F 81% 30.27 in 5.6 mi SSW 11.5 mph - N/A   Mostly Cloudy
2:50 PM 46.4 °F 41.1 °F 41.0 °F 81% 30.27 in 5.6 mi SSW 11.5 mph - N/A   Mostly Cloudy
3:20 PM 46.4 °F 41.1 °F 41.0 °F 81% 30.27 in 5.6 mi SSW 11.5 mph - N/A   Mostly Cloudy
3:50 PM 44.6 °F 39.2 °F 39.2 °F 81% 30.27 in 6.2 mi South 10.4 mph - N/A   Scattered Clouds
4:00 PM 45 °F - 40 °F 77% 30.29 in 6 mi South 11.2 mph - -   Partly Cloudy
4:20 PM 44.6 °F 39.2 °F 39.2 °F 81% 30.27 in 6.2 mi South 10.4 mph - N/A   Partly Cloudy
4:50 PM 44.6 °F 40.2 °F 39.2 °F 81% 30.30 in - South 8.1 mph - N/A   Clear
5:20 PM 44.6 °F 40.2 °F 39.2 °F 81% 30.30 in - South 8.1 mph - N/A   Clear
5:50 PM 44.6 °F 40.7 °F 39.2 °F 81% 30.27 in - South 6.9 mph - N/A   Clear
6:20 PM 44.6 °F 40.2 °F 39.2 °F 81% 30.27 in - South 8.1 mph - N/A   Clear
6:50 PM 44.6 °F 40.7 °F 39.2 °F 81% 30.30 in - South 6.9 mph - N/A   Clear
7:00 PM 45 °F - 40 °F 76% 30.30 in 11 mi South 6.7 mph - -   Mostly Cloudy
7:20 PM 44.6 °F 40.7 °F 41.0 °F 87% 30.30 in - South 6.9 mph - N/A   Clear
7:50 PM 46.4 °F 42.4 °F 41.0 °F 81% 30.30 in - South 8.1 mph - N/A   Clear
8:20 PM 46.4 °F 41.5 °F 41.0 °F 81% 30.30 in - South 10.4 mph - N/A   Clear
8:50 PM 46.4 °F 41.1 °F 41.0 °F 81% 30.30 in - South 11.5 mph - N/A   Clear
9:20 PM 46.4 °F 41.1 °F 41.0 °F 81% 30.30 in - South 11.5 mph - N/A   Clear
9:50 PM 46.4 °F 41.5 °F 41.0 °F 81% 30.30 in - SSW 10.4 mph - N/A   Clear
10:00 PM 46 °F - 41 °F 76% 30.32 in 12 mi SSW 11.2 mph - -   Mostly Cloudy
10:20 PM 46.4 °F 41.5 °F 41.0 °F 81% 30.30 in - SSW 10.4 mph - N/A   Clear
10:50 PM 46.4 °F 41.9 °F 41.0 °F 81% 30.33 in - South 9.2 mph - N/A   Clear
11:20 PM 46.4 °F 41.9 °F 41.0 °F 81% 30.33 in 6.2 mi SSW 9.2 mph - N/A   Overcast
11:50 PM 46.4 °F 41.9 °F 41.0 °F 81% 30.33 in 6.2 mi SSW 9.2 mph - N/A   Mostly Cloudy